Weather History for CYBC - November, 2012

Change the Weather History Date:

Tuesday, November 6, 2012

  Actual Average Record
Temperature  
Mean Temperature 38 °F -  
Max Temperature 50 °F 32 °F 58 °F (2014)
Min Temperature 26 °F 19 °F 17 °F (2006)
Degree Days  
Heating Degree Days 27    
Moisture  
Dew Point 20 °F    
Average Humidity 66    
Maximum Humidity 96    
Minimum Humidity 55    
Precipitation  
Precipitation 0.55 in 0.12 in - ()
Sea Level Pressure  
Sea Level Pressure 29.98 in    
Wind  
Wind Speed 9 mph ()    
Max Wind Speed 21 mph    
Max Gust Speed 26 mph    
Visibility 8.4 miles    
Events Rain , Snow    
Averages and records for this station are not official NWS values.
T = Trace of Precipitation, MM = Missing Value Source: Averaged Metar Reports

Daily Weather History Graph

Daily Weather History Graph

Search for Another Location

Airport or City:

Trip Planner

Search our weather history database for the weather conditions in past years. The results will help you decide how hot, cold, wet, or windy it might be!

Date:

Astronomy

Nov. 06, 2012 Rise Set
Actual Time 6:29 AM EST 4:03 PM EST
Civil Twilight 5:55 AM EST 4:36 PM EST
Nautical Twilight 5:17 AM EST 5:14 PM EST
Astronomical Twilight 4:40 AM EST 5:51 PM EST
Moon 10:44 PM EST (11/6) 12:15 PM EST (11/6)
Length of Visible Light 10h 41m
Length of Day
9h 33m
Waning Gibbous, 53% of the Moon is Illuminated
Nov 6
Waning Gibbous
Nov 6
Last Quarter
Nov 13
New
Nov 20
First Quarter
Nov 28
Full

Hourly Weather History & Observations

Time (EST) Temp. Windchill Dew Point Humidity Pressure Visibility Wind Dir Wind Speed Gust Speed Precip Events Conditions
12:00 AM 28.4 °F 23.3 °F 14.0 °F 55% 29.94 in 9.0 mi West 4.6 mph - N/A   Overcast
1:00 AM 48 °F - 45 °F 87% 30.24 in 10 mi East 8.1 mph - -  
1:00 AM 28.4 °F 21.2 °F 17.6 °F 64% 29.94 in 9.0 mi West 6.9 mph - N/A   Overcast
2:00 AM 28.4 °F 19.1 °F 17.6 °F 64% 29.94 in 9.0 mi West 10.4 mph - N/A   Overcast
2:14 AM 28.4 °F 21.2 °F 17.6 °F 64% 29.94 in 9.0 mi West 6.9 mph - N/A Snow Light Snow
2:23 AM 28.4 °F 19.7 °F 17.6 °F 64% 29.94 in 9.0 mi West 9.2 mph - N/A   Overcast
2:46 AM 26.6 °F 18.2 °F 19.4 °F 74% 29.94 in 7.0 mi WNW 8.1 mph - N/A Snow Light Snow
2:50 AM 26.6 °F 20.0 °F 19.4 °F 74% 29.94 in 5.0 mi NW 5.8 mph - N/A Snow Light Snow
2:59 AM 26.6 °F 22.6 °F 21.2 °F 80% 29.94 in 6.0 mi WNW 3.5 mph - N/A Snow Light Snow
3:00 AM 26.6 °F 22.6 °F 21.2 °F 80% 29.94 in 7.0 mi WNW 3.5 mph - N/A Snow Light Snow
3:10 AM 26.6 °F 16.2 °F 21.2 °F 80% 29.94 in 4.0 mi West 11.5 mph - N/A Snow Light Snow
3:11 AM 26.6 °F 16.8 °F 21.2 °F 80% 29.94 in 3.0 mi WNW 10.4 mph - N/A Snow Light Snow
3:12 AM 26.6 °F 17.5 °F 21.2 °F 80% 29.94 in 2.5 mi West 9.2 mph - N/A Snow Light Snow
3:20 AM 26.6 °F 19.1 °F 21.2 °F 80% 29.94 in 3.0 mi West 6.9 mph - N/A Snow Light Snow
3:22 AM 26.6 °F 20.0 °F 21.2 °F 80% 29.94 in 6.0 mi West 5.8 mph - N/A Snow Light Snow
3:31 AM 26.6 °F 21.2 °F 21.2 °F 80% 29.94 in 9.0 mi West 4.6 mph - N/A   Overcast
3:56 AM 26.6 °F 18.2 °F 21.2 °F 80% 29.94 in 6.0 mi WNW 8.1 mph - N/A Snow Light Snow
4:00 AM 26.6 °F 20.0 °F 21.2 °F 80% 29.94 in 6.0 mi West 5.8 mph - N/A Snow Light Snow
4:11 AM 26.6 °F 18.2 °F 21.2 °F 80% 29.94 in 9.0 mi West 8.1 mph - N/A   Overcast
4:31 AM 26.6 °F 19.1 °F 19.4 °F 74% 29.94 in 9.0 mi West 6.9 mph - N/A Snow Light Snow
4:41 AM 26.6 °F 19.1 °F 19.4 °F 74% 29.94 in 9.0 mi West 6.9 mph - N/A   Overcast
5:00 AM 26.6 °F 16.8 °F 19.4 °F 74% 29.94 in 9.0 mi West 10.4 mph 17.3 mph N/A   Overcast
5:01 AM 26.6 °F 16.8 °F 19.4 °F 74% 29.94 in 9.0 mi West 10.4 mph 17.3 mph N/A Snow Light Snow
5:13 AM 26.6 °F 18.2 °F 19.4 °F 74% 29.94 in 9.0 mi West 8.1 mph - N/A   Overcast
5:31 AM 26.6 °F 17.5 °F 19.4 °F 74% 29.94 in 9.0 mi West 9.2 mph - N/A Snow Light Snow
5:55 AM 26.6 °F 17.5 °F 19.4 °F 74% 29.94 in 9.0 mi West 9.2 mph - N/A   Overcast
6:00 AM 26.6 °F 17.5 °F 19.4 °F 74% 29.94 in 9.0 mi WSW 9.2 mph - N/A   Overcast
7:00 AM 46 °F - 44 °F 88% 30.14 in 10 mi ESE 11.5 mph - -   Overcast
7:00 AM 26.6 °F 15.7 °F 19.4 °F 74% 29.95 in 9.0 mi WSW 12.7 mph - N/A   Overcast
8:00 AM 28.4 °F 17.0 °F 19.4 °F 69% 29.95 in 9.0 mi West 15.0 mph - N/A   Overcast
8:51 AM 28.4 °F 18.0 °F 15.8 °F 59% 29.94 in 9.0 mi West 12.7 mph - N/A Snow Light Snow
9:00 AM 28.4 °F 15.8 °F 15.8 °F 59% 29.94 in 9.0 mi West 18.4 mph - N/A   Overcast
9:55 AM 30.2 °F 19.3 °F 15.8 °F 55% 29.95 in 9.0 mi West 15.0 mph 21.9 mph N/A Snow Light Snow
10:00 AM 30.2 °F 20.8 °F 15.8 °F 55% 29.95 in 9.0 mi WNW 11.5 mph 21.9 mph N/A Snow Light Snow
10:07 AM 30.2 °F 20.8 °F 15.8 °F 55% 29.95 in 9.0 mi WNW 11.5 mph 19.6 mph N/A   Overcast
11:00 AM 30.2 °F 17.4 °F 17.6 °F 60% 29.94 in 9.0 mi West 20.7 mph - N/A   Overcast
11:06 AM 30.2 °F 18.9 °F 15.8 °F 55% 29.94 in 9.0 mi West 16.1 mph 26.5 mph N/A Snow Light Snow
11:17 AM 32.0 °F 20.5 °F 17.6 °F 55% 29.94 in 9.0 mi West 18.4 mph 25.3 mph N/A   Overcast
11:24 AM 32.0 °F 21.6 °F 17.6 °F 55% 29.94 in 9.0 mi West 15.0 mph 25.3 mph N/A Snow Light Snow
11:57 AM 32.0 °F 20.8 °F 17.6 °F 55% 29.94 in 9.0 mi West 17.3 mph 25.3 mph N/A   Overcast
12:00 PM 32.0 °F 20.8 °F 17.6 °F 55% 29.94 in 9.0 mi West 17.3 mph 25.3 mph N/A   Overcast
12:08 PM 32.0 °F 20.8 °F 17.6 °F 55% 29.94 in 9.0 mi West 17.3 mph 25.3 mph N/A Rain Light Rain
12:12 PM 32.0 °F 19.8 °F 17.6 °F 55% 29.94 in 9.0 mi West 20.7 mph - N/A Rain Light Rain
12:20 PM 32.0 °F 22.5 °F 17.6 °F 55% 29.95 in 9.0 mi WNW 12.7 mph 25.3 mph N/A Rain Light Rain
12:25 PM 32.0 °F 22.5 °F 17.6 °F 55% 29.95 in 9.0 mi West 12.7 mph 19.6 mph N/A Rain Light Rain
12:30 PM 32.0 °F 21.2 °F 17.6 °F 55% 29.95 in 9.0 mi West 16.1 mph - N/A   Overcast
12:37 PM 32.0 °F 21.2 °F 17.6 °F 55% 29.95 in 9.0 mi West 16.1 mph 23.0 mph N/A   Overcast
1:00 PM 49 °F - 45 °F 83% 30.02 in 10 mi East 10.4 mph - - Rain Light Rain
1:00 PM 32.0 °F 20.8 °F 17.6 °F 55% 29.95 in 9.0 mi West 17.3 mph 24.2 mph N/A   Overcast
2:00 PM 35.6 °F 25.5 °F 21.2 °F 56% 29.96 in 9.0 mi West 17.3 mph - N/A   Overcast
3:00 PM 33.8 °F 24.8 °F 21.2 °F 60% 29.99 in 9.0 mi West 12.7 mph 21.9 mph N/A   Overcast
3:32 PM 33.8 °F 24.8 °F 19.4 °F 56% 30.01 in 9.0 mi West 12.7 mph 25.3 mph N/A   Overcast
3:33 PM 33.8 °F 24.8 °F 19.4 °F 56% 30.01 in 9.0 mi West 12.7 mph 25.3 mph N/A Rain Light Rain
3:40 PM 32.0 °F 22.5 °F 19.4 °F 60% 30.01 in 9.0 mi West 12.7 mph 19.6 mph N/A Rain Light Rain
3:52 PM 32.0 °F 21.6 °F 19.4 °F 60% 30.01 in 9.0 mi West 15.0 mph 25.3 mph N/A   Overcast
3:58 PM 32.0 °F 22.1 °F 21.2 °F 64% 30.02 in 8.0 mi WNW 13.8 mph 26.5 mph N/A Snow Light Snow
4:00 PM 32.0 °F 22.1 °F 19.4 °F 60% 30.02 in 8.0 mi West 13.8 mph 26.5 mph N/A Snow Light Snow
4:18 PM 32.0 °F 20.8 °F 19.4 °F 60% 30.03 in 9.0 mi West 17.3 mph 24.2 mph N/A Snow Light Snow
4:23 PM 32.0 °F 21.2 °F 19.4 °F 60% 30.03 in 9.0 mi West 16.1 mph 24.2 mph N/A   Overcast
4:25 PM 32.0 °F 21.6 °F 19.4 °F 60% 30.03 in 9.0 mi West 15.0 mph 24.2 mph N/A Rain Light Rain
4:26 PM 32.0 °F 21.6 °F 19.4 °F 60% 30.03 in 9.0 mi West 15.0 mph 24.2 mph N/A Rain Light Rain
4:34 PM 32.0 °F 22.1 °F 17.6 °F 55% 30.03 in 9.0 mi West 13.8 mph 23.0 mph N/A   Overcast
5:00 PM 32.0 °F 21.6 °F 17.6 °F 55% 30.05 in 9.0 mi West 15.0 mph 21.9 mph N/A   Overcast
6:00 PM 32.0 °F 21.6 °F 17.6 °F 55% 30.07 in 9.0 mi West 15.0 mph 25.3 mph N/A   Overcast
7:00 PM 47 °F - 46 °F 96% 29.94 in 9 mi East 5.8 mph - - Rain Light Rain
7:00 PM 28.4 °F 17.5 °F 17.6 °F 64% 30.09 in 9.0 mi West 13.8 mph - N/A   Clear
8:00 PM 28.4 °F 18.0 °F 17.6 °F 64% 30.12 in 9.0 mi West 12.7 mph 21.9 mph N/A   Partly Cloudy
9:00 PM 28.4 °F 22.2 °F 17.6 °F 64% 30.14 in 9.0 mi West 5.8 mph - N/A   Partly Cloudy
10:00 PM 28.4 °F 19.7 °F 15.8 °F 59% 30.16 in 9.0 mi West 9.2 mph - N/A   Clear
11:00 PM 26.6 °F 20.0 °F 15.8 °F 64% 30.17 in 9.0 mi West 5.8 mph - N/A   Clear